Ephrata, WA
on Wednesday, November 21, 2012

Wednesday
Previous Day Next Day
Daily Summary
 ActualAverageRecord
Temperature
Mean Temperature °F / °C 35°F / 2°C  
Max Temperature 51°F / 11°C 42°F / 6°C 57°F / 13°C (1980)
Min Temperature 32°F / 0°C 27°F / -3°C 8°F / -13°C (1977)
Degree Days
Heating Degree Days 23 30  
Month to date heating degree days 486 548  
Since 1 July heating degree days 981 1129  
Cooling Degree Days 0 0  
Month to date cooling degree days 0 0  
Year to date cooling degree days 837 772  
Moisture
Dew Point 33°F / 1°C   
Average Humidity 75    
Maximum Humidity 100    
Minimum Humidity 50    
Precipitation
Precipitation 0.06 in / 1.52 cm 0.04 in / 1.02 cm 0.56 in / 1.42 cm (1992)
Month to date precipitation 0.88 0.71  
Year to date precipitation 6.74 6.26  
Wind
Wind Speed 10 mph / 17 km/h   
Max Wind Speed 28 mph / 45 km/h   
Max Gust Speed 32 mph / 52 km/h   
Visibility 10 miles / 15 kilometers   
Events Rain   

Key: T is trace of precipitation, MM is missing value
Source: NWS Daily Summary
Time(PST)TemperatureDew PointHumidity Pressure Visibility Wind DirectionWind SpeedGust SpeedPrecipitationEvents Conditions
12:53 AM 39.0°F / 3.9°C 36.0°F / 2.2°C 89% 29.66 in / 1004.2 hPa 10.0 miles / 16.1 kilometers ENE 3.5 mph / 5.6 km/h - 0.00 in / 0.0 cm   Mostly Cloudy
1:53 AM 35.1°F / 1.7°C 33.1°F / 0.6°C 92% 29.62 in / 1002.9 hPa 10.0 miles / 16.1 kilometers NNW 5.8 mph / 9.3 km/h - N/A   Clear
2:53 AM 37.0°F / 2.8°C 34.0°F / 1.1°C 89% 29.63 in / 1003.3 hPa 10.0 miles / 16.1 kilometers NNW 8.1 mph / 13.0 km/h - N/A   Scattered Clouds
3:53 AM 37.9°F / 3.3°C 36.0°F / 2.2°C 93% 29.62 in / 1002.8 hPa 10.0 miles / 16.1 kilometers North 5.8 mph / 9.3 km/h - 0.00 in / 0.0 cm Rain Light Rain
4:53 AM 39.9°F / 4.4°C 37.9°F / 3.3°C 93% 29.64 in / 1003.7 hPa 5.0 miles / 8.0 kilometers Calm Calm - 0.03 in / 0.8 cm Rain Rain
5:53 AM 37.9°F / 3.3°C 36.0°F / 2.2°C 93% 29.62 in / 1002.8 hPa 10.0 miles / 16.1 kilometers SSE 3.5 mph / 5.6 km/h - 0.01 in / 0.3 cm   Scattered Clouds
6:53 AM 37.9°F / 3.3°C 36.0°F / 2.2°C 93% 29.66 in / 1004.3 hPa 10.0 miles / 16.1 kilometers SW 9.2 mph / 14.8 km/h - N/A   Clear
7:53 AM 36.0°F / 2.2°C 35.1°F / 1.7°C 97% 29.68 in / 1005.1 hPa 10.0 miles / 16.1 kilometers South 9.2 mph / 14.8 km/h - N/A   Clear
8:53 AM 41.0°F / 5.0°C 37.0°F / 2.8°C 86% 29.72 in / 1006.3 hPa 10.0 miles / 16.1 kilometers SSW 18.4 mph / 29.6 km/h - N/A   Clear
9:53 AM 45.0°F / 7.2°C 37.0°F / 2.8°C 74% 29.75 in / 1007.4 hPa 10.0 miles / 16.1 kilometers SW 17.3 mph / 27.8 km/h 21.9 mph / 35.2 km/h N/A   Clear
10:53 AM 48.9°F / 9.4°C 34.0°F / 1.1°C 56% 29.79 in / 1008.6 hPa 10.0 miles / 16.1 kilometers SW 19.6 mph / 31.5 km/h 27.6 mph / 44.4 km/h N/A   Clear
11:53 AM 50.0°F / 10.0°C 32.0°F / 0.0°C 50% 29.81 in / 1009.3 hPa 10.0 miles / 16.1 kilometers SW 20.7 mph / 33.3 km/h 28.8 mph / 46.3 km/h N/A   Clear
12:53 PM 50.0°F / 10.0°C 33.1°F / 0.6°C 52% 29.84 in / 1010.3 hPa 10.0 miles / 16.1 kilometers SSW 18.4 mph / 29.6 km/h - N/A   Clear
1:53 PM 48.0°F / 8.9°C 32.0°F / 0.0°C 54% 29.86 in / 1010.9 hPa 10.0 miles / 16.1 kilometers SSW 10.4 mph / 16.7 km/h - N/A   Clear
2:53 PM 48.0°F / 8.9°C 32.0°F / 0.0°C 54% 29.88 in / 1011.8 hPa 10.0 miles / 16.1 kilometers SW 17.3 mph / 27.8 km/h 25.3 mph / 40.7 km/h 0.00 in / 0.0 cm Rain Light Rain
3:28 PM 39.2°F / 4.0°C 33.8°F / 1.0°C 81% 29.91 in / 1012.8 hPa 3.0 miles / 4.8 kilometers NW 19.6 mph / 31.5 km/h 32.2 mph / 51.9 km/h 0.02 in / 0.5 cm Rain Rain
3:53 PM 42.1°F / 5.6°C 35.1°F / 1.7°C 76% 29.94 in / 1013.6 hPa 10.0 miles / 16.1 kilometers NNW 3.5 mph / 5.6 km/h - 0.02 in / 0.5 cm   Overcast
4:53 PM 37.0°F / 2.8°C 33.1°F / 0.6°C 86% 29.97 in / 1014.7 hPa 10.0 miles / 16.1 kilometers SW 8.1 mph / 13.0 km/h - N/A   Clear
5:53 PM 37.0°F / 2.8°C 30.0°F / -1.1°C 76% 29.98 in / 1015.1 hPa 10.0 miles / 16.1 kilometers SW 12.7 mph / 20.4 km/h - N/A   Clear
6:53 PM 37.9°F / 3.3°C 28.0°F / -2.2°C 68% 30.02 in / 1016.5 hPa 10.0 miles / 16.1 kilometers WSW 12.7 mph / 20.4 km/h - N/A   Clear
7:53 PM 39.0°F / 3.9°C 28.9°F / -1.7°C 67% 30.07 in / 1018.2 hPa 10.0 miles / 16.1 kilometers WSW 11.5 mph / 18.5 km/h - N/A   Clear
8:53 PM 34.0°F / 1.1°C 28.0°F / -2.2°C 79% 30.10 in / 1019.3 hPa 10.0 miles / 16.1 kilometers WSW 8.1 mph / 13.0 km/h - N/A   Clear
9:53 PM 33.1°F / 0.6°C 28.0°F / -2.2°C 82% 30.14 in / 1020.4 hPa 10.0 miles / 16.1 kilometers SSW 9.2 mph / 14.8 km/h - N/A   Clear
10:53 PM 34.0°F / 1.1°C 28.0°F / -2.2°C 79% 30.17 in / 1021.5 hPa 10.0 miles / 16.1 kilometers South 11.5 mph / 18.5 km/h - N/A   Clear
11:53 PM 35.1°F / 1.7°C 28.0°F / -2.2°C 76% 30.21 in / 1022.8 hPa 10.0 miles / 16.1 kilometers SW 6.9 mph / 11.1 km/h - N/A   Clear
Moon Phase
Nov. 21 Nov. 28 Dec. 06 Dec. 13 Dec. 20
Sunrise:07:11 AM (PST) Moon Rise:12:57 PM (PST)11/21
Sunset:04:15 PM (PST) Moon Set:12:11 AM (PST)11/21

Copyright © 2014 The Weather Underground, Inc.